Regional Weather Roundup
Issued by NWS Cleveland, OH

Home | Current Version | Previous Version | Text Only | Print | Product List | Glossary Off
Versions: 1 2 3 4 5 6 7 8 9 10 11 12 13 14 15 16 17 18 19 20 21 22 23 24 25 26 27 28 29 30 31 32 33 34 35 36 37 38 39 40 41 42 43 44 45 46 47 48 49 50

048
ASUS41 KCLE 222000
RWRCLE
OHIO REGIONAL WEATHER ROUNDUP
NATIONAL WEATHER SERVICE WILMINGTON, OH
300 PM EST WED FEB 22 2017

NOTE: "FAIR" INDICATES FEW OR NO CLOUDS BELOW 12,000 FEET WITH NO
SIGNIFICANT WEATHER AND/OR OBSTRUCTIONS TO VISIBILITY.

OHZ001>008-015>018-024>027-034-035-043-044-222100-
   NORTHWEST OHIO

CITY           SKY/WX    TMP DP  RH WIND       PRES   REMARKS
DEFIANCE       CLOUDY    61  53  75 S10       29.77F
FINDLAY        CLOUDY    61  54  77 S10       29.79F
TOLEDO EXPRESS CLOUDY    62  55  77 S8        29.77F
TOLEDO EXEC    CLOUDY    63  55  75 S13       29.79F
LIMA           CLOUDY    61  56  83 S10       29.79F
$$

OHZ009>014-019>023-028>033-038-089-222100-
   NORTHEAST OHIO

CITY           SKY/WX    TMP DP  RH WIND       PRES   REMARKS
CLE-HOPKINS    CLOUDY    62  53  72 S12       29.84S
CLE-LAKEFRONT  CLOUDY    62  53  72 S10       29.81S
CUY CO. ARPT   CLOUDY    61  55  82 S9        29.83S
LORAIN-ELYRIA  CLOUDY    61  52  72 SW14      29.81F
ASHTABULA      CLOUDY    57  55  93 S9        29.84F
AKRON-CANTON   CLOUDY    59  53  80 S14       29.84F
WOOSTER        NOT AVBL
MANSFIELD      CLOUDY    57  55  93 S13       29.82F
YOUNGSTOWN     CLOUDY    57  55  93 S7        29.86F FOG
$$

OHZ042-051>053-060>062-070>072-077>081-222100-
  SOUTHWEST OHIO

CITY           SKY/WX    TMP DP  RH WIND       PRES   REMARKS
CINC-COVINGTON CLOUDY    64  57  78 S9        29.83F
CINC-LUNKEN    CLOUDY    64  59  83 S6        29.84F
HAMILTON       CLOUDY    65  58  78 SW7       29.83F
DAYTON         NOT AVBL
WRIGHT-PAT AFB NOT AVBL
DAYTON GENERAL CLOUDY    61  57  87 S9        29.82F
WILMINGTON     CLOUDY    59  56  89 S8        29.83F
$$

OHZ036-037-039>041-045>050-054>059-063>069-073>076-082>088-222100-
  CENTRAL AND SOUTHEAST OHIO

CITY           SKY/WX    TMP DP  RH WIND       PRES   REMARKS
COLUMBUS       CLOUDY    60  55  83 S12       29.84F
OSU AIRPORT    CLOUDY    58  56  93 S12       29.83F
BOLTON FIELD   CLOUDY    57  55  94 S12       29.85F FOG
RICKENBACK AFB NOT AVBL
NEWARK         CLOUDY    60  54  80 S12       29.83F
MARION         CLOUDY    60  54  80 S17       29.83F
LANCASTER      CLOUDY    60  54  80 SW9       29.86F
ZANESVILLE     CLOUDY    59  53  80 S8        29.86F
NEW PHILLY     CLOUDY    62  52  69 VRB7      29.85F
$$




USA.gov is the U.S. government's official web portal to all federal, state and local government web resources and services.